Theta_e
337 337 338 338 338 336 333 335 335 334 333 332 333 332 332 331 332 334 334 334 331 332 334 334 334 336 341 343 343 342 338 338 338 339 342 344 344 348
340 339 339 337 334 333 335 333 333 333 333 330 331 332 331 332 332 332 331 332 331 332 333 334 336 337 338 338 337 339 337 337 340 336 335 345 348 348
338 337 334 333 334 334 333 331 331 331 331 329 330 331 332 332 331 330 331 330 330 330 330 332 333 335 338 340 341 340 336 338 342 341 337 347 347 347
333 333 331 330 330 331 331 330 330 329 329 329 328 329 331 331 332 330 330 330 330 331 333 333 335 335 336 336 337 337 337 338 338 343 343 346 348 348
328 328 328 328 329 329 328 329 329 328 328 328 327 328 329 330 331 331 329 330 330 329 330 331 330 329 332 336 338 339 340 340 340 343 345 346 348 348
327 328 326 325 326 326 327 327 328 328 327 326 327 327 328 328 329 329 330 330 331 331 331 330 329 325 324 327 331 335 341 343 344 346 346 347 348 348
326 324 323 323 324 322 325 326 327 326 326 326 327 326 327 327 328 329 329 329 329 329 329 327 326 328 332 332 336 337 337 339 341 340 343 347 348 349
324 322 321 322 322 321 323 325 325 326 327 328 328 327 327 326 328 328 328 328 328 326 327 329 330 331 329 326 327 330 334 335 341 348 347 347 347 347
320 320 320 321 321 321 323 323 325 325 324 325 327 327 327 327 325 327 326 326 326 326 327 328 328 328 328 328 326 324 325 331 335 338 343 346 347 350
318 319 320 320 320 321 321 324 322 322 322 322 322 323 323 324 323 324 324 325 324 325 324 327 326 327 327 328 326 323 323 326 332 335 337 341 344 346
318 319 319 319 320 320 321 322 321 321 321 321 321 321 321 322 322 321 321 323 323 323 322 324 325 326 327 328 326 324 321 322 326 333 336 339 344 344
317 319 318 318 319 319 319 317 317 320 321 322 321 322 322 321 320 321 321 321 321 322 321 322 323 325 327 326 324 324 327 327 327 330 334 338 342 342
314 316 319 319 318 319 320 320 320 321 322 322 321 321 322 321 320 319 320 320 321 321 321 321 321 324 326 327 334 333 330 334 338 340 334 338 341 340
314 316 316 316 321 320 318 318 319 320 320 320 320 320 320 321 319 318 318 318 319 321 320 320 321 323 325 328 330 328 328 331 334 340 341 340 341 336
316 316 314 313 315 313 315 312 312 311 313 314 314 314 315 315 315 316 316 319 319 320 320 319 321 322 324 327 328 329 333 336 338 340 339 339 339 338
314 314 311 309 307 309 310 306 306 306 307 307 308 309 310 313 313 314 316 318 320 324 324 321 321 322 324 324 325 327 330 335 336 336 339 335 333 335
310 306 303 302 301 303 300 300 301 301 302 302 304 305 307 309 311 314 316 320 319 324 324 323 323 323 323 324 326 328 330 331 334 338 336 335 333 335
303 303 301 300 298 297 297 297 298 298 298 299 300 302 304 306 308 312 317 319 319 323 327 325 324 325 325 325 324 326 328 330 334 336 339 338 337 337
302 301 300 298 297 296 295 295 295 295 296 297 298 300 302 304 306 311 317 319 318 319 321 327 326 325 327 327 322 324 326 328 334 335 336 339 340 341
301 299 298 296 295 294 294 293 293 294 295 295 296 297 298 301 305 310 314 319 318 319 319 320 323 327 329 328 325 313 323 325 331 336 336 336 338 338
302 299 297 295 293 292 292 292 292 292 293 294 295 295 297 299 302 308 311 317 319 319 319 318 319 326 327 328 322 316 314 321 329 334 338 336 335 336
298 297 295 293 292 291 291 291 291 291 292 292 293 294 296 298 300 305 309 315 319 318 320 318 319 321 322 323 322 319 317 315 317 326 332 334 334 339
295 294 292 291 290 290 290 290 290 290 290 290 291 293 295 297 300 303 308 312 317 319 319 320 318 318 319 321 321 320 318 317 316 315 316 318 323 327
Wind_Speed
24 26 27 28 26 30 31 25 20 12 14 22 21 26 29 29 29 28 28 30 31 29 28 29 28 25 22 21 20 22 24 24 25 29 29 31 32 32
23 24 28 31 30 30 28 26 24 23 13 23 26 27 30 32 31 28 31 31 30 29 27 27 27 27 27 29 28 28 27 27 27 28 29 27 26 27
24 26 28 30 30 29 28 25 24 23 18 25 26 28 26 30 33 30 27 29 32 31 28 27 26 27 28 28 27 29 30 28 28 27 27 26 25 27
22 24 27 28 27 27 26 24 24 24 24 25 24 26 26 28 29 31 30 29 30 31 28 26 24 26 26 27 28 30 31 30 29 27 26 24 23 25
21 23 26 26 24 24 25 24 23 23 23 28 26 25 28 24 26 24 30 31 29 27 27 24 23 24 25 24 25 25 27 28 27 27 26 27 25 26
22 24 25 25 24 26 26 24 24 25 25 27 27 22 22 23 23 23 22 22 24 22 23 26 28 29 28 29 27 27 27 26 25 25 25 26 26 26
25 27 24 26 28 31 25 24 25 25 25 25 24 21 17 19 20 19 19 22 24 23 23 25 25 21 21 22 23 24 25 25 25 26 26 26 25 24
29 30 30 30 32 33 29 30 28 29 28 26 25 19 18 20 22 21 20 17 10 17 18 18 16 20 26 29 30 29 26 25 21 19 22 24 26 25
30 33 33 28 33 31 31 32 31 27 25 26 22 20 18 22 24 24 21 20 22 23 22 29 23 25 27 26 30 29 29 28 27 24 21 20 21 23
34 33 31 31 33 34 31 29 32 30 29 30 27 29 25 26 27 26 28 28 26 25 24 20 27 28 26 27 31 29 29 28 28 28 24 23 19 20
33 34 30 32 33 30 29 29 32 37 31 21 18 20 22 26 26 25 24 21 17 25 24 28 29 29 25 28 29 31 31 29 29 28 26 24 20 17
32 32 32 26 28 25 26 28 25 28 23 26 25 25 27 26 32 28 28 24 24 19 29 29 26 23 11 21 23 21 25 25 28 29 27 26 23 21
30 32 30 35 31 24 16 14 16 21 25 24 23 23 22 25 26 32 33 35 36 33 34 29 25 28 27 16 8 9 12 12 14 18 28 27 26 24
28 25 25 29 16 8 13 14 15 15 18 17 18 19 21 25 32 40 42 44 44 45 46 34 32 28 23 17 12 13 17 18 17 16 16 25 26 24
20 16 18 20 16 18 16 18 17 17 14 15 17 21 24 32 40 42 41 37 38 38 37 37 32 31 23 18 15 13 13 10 13 13 15 20 26 26
19 16 16 17 17 21 22 22 20 19 17 19 22 26 28 33 35 39 36 33 31 19 17 22 34 29 21 21 21 18 15 10 7 14 13 14 18 22
14 18 22 23 24 29 27 24 23 25 27 28 26 28 28 31 34 41 37 31 24 18 11 18 28 30 29 22 15 16 15 17 16 11 11 13 15 19
21 19 20 22 20 24 23 25 22 27 26 25 28 26 26 29 32 37 38 31 25 23 12 17 19 17 17 21 24 15 16 19 17 15 13 11 12 18
18 18 20 21 23 22 21 21 22 25 25 22 26 25 26 29 31 31 34 33 35 30 28 6 16 11 7 6 7 24 19 18 18 17 19 17 16 14
19 19 19 20 21 22 22 24 25 26 24 24 27 27 28 26 27 29 31 32 28 29 25 26 14 5 8 8 4 6 13 23 19 14 14 18 15 17
18 19 21 20 20 21 20 20 21 23 24 24 25 27 28 27 28 28 29 33 28 28 25 25 27 10 8 16 9 5 17 3 19 16 12 12 8 8
20 19 18 18 18 19 22 22 22 22 25 26 26 26 29 26 25 27 28 27 27 26 25 29 31 28 24 12 6 9 9 18 23 10 10 9 6 4
19 18 16 17 19 21 21 21 21 22 23 24 27 28 31 30 27 26 25 26 24 24 25 27 28 28 27 22 16 14 13 11 13 22 31 21 15 10
Wind_Direction
302 302 297 296 297 301 297 291 287 300 299 300 295 296 295 300 298 296 292 290 293 291 287 285 281 278 276 277 274 275 285 283 276 269 268 262 249 252
302 301 297 299 303 300 294 292 282 279 290 297 293 288 292 297 296 293 293 293 289 288 287 283 279 274 274 271 271 271 276 279 277 273 264 260 248 246
303 300 300 301 302 300 297 289 280 280 284 292 289 291 286 290 297 297 293 291 293 290 289 287 282 273 271 271 269 268 269 273 272 274 263 256 251 251
305 303 302 304 300 298 294 286 286 286 281 291 295 293 287 289 291 297 297 295 293 292 292 290 285 278 275 272 269 267 264 264 268 266 259 254 254 258
304 305 304 307 300 298 296 291 285 286 286 290 294 290 288 288 288 292 297 296 294 293 293 290 287 282 278 274 269 265 262 260 262 259 255 250 256 259
312 310 312 312 305 302 296 293 293 291 292 289 289 287 283 288 285 286 287 291 291 294 289 288 289 290 282 274 269 266 262 264 262 258 256 256 257 255
314 315 312 308 306 313 306 304 301 295 292 286 284 282 277 281 278 287 281 287 289 290 288 291 293 292 286 278 271 267 263 268 267 260 256 253 254 251
319 317 317 321 322 319 314 313 307 298 290 285 282 272 268 270 276 275 279 282 287 291 286 283 282 277 280 282 279 279 274 271 267 262 253 248 252 249
324 327 328 324 322 314 312 313 311 306 302 303 303 304 294 284 291 284 280 273 273 277 284 282 278 271 273 275 280 280 276 268 262 260 259 250 256 249
329 326 318 311 307 308 310 304 306 308 302 302 294 295 298 300 295 286 282 279 279 275 268 267 273 265 270 268 278 279 274 267 258 255 253 254 256 251
324 318 312 312 308 311 311 306 306 305 315 319 312 308 309 310 305 300 283 274 272 271 261 254 263 267 265 265 266 273 270 264 255 251 247 247 247 253
320 320 323 317 320 317 311 311 304 308 325 326 320 313 310 322 326 304 279 270 275 275 265 249 253 252 262 255 262 262 263 259 252 245 243 241 236 235
319 319 323 332 325 318 319 321 313 319 317 317 318 315 309 316 314 311 294 283 278 268 264 248 249 241 230 255 228 229 271 281 281 256 235 233 231 226
322 325 334 343 328 24 18 348 327 322 324 318 318 315 309 303 312 310 302 294 280 267 267 254 235 234 225 224 236 252 267 270 265 258 243 228 226 222
339 342 350 358 5 16 19 10 4 353 344 341 328 319 318 314 318 312 312 302 298 284 268 245 228 224 225 226 230 242 252 257 258 250 241 223 219 213
353 356 357 -0 6 23 17 11 9 4 359 348 333 328 326 327 320 324 320 316 317 289 287 241 219 216 219 225 233 237 240 233 245 240 240 231 221 220
7 15 17 12 9 17 3 358 5 3 4 356 347 338 330 325 322 331 332 333 326 308 247 225 215 213 219 218 218 225 234 240 244 236 231 223 226 219
36 21 14 8 4 360 347 349 356 359 357 349 346 337 329 326 323 328 339 349 343 348 291 208 201 199 204 223 224 228 233 245 236 228 222 212 235 241
31 20 11 1 359 351 348 349 344 346 349 345 342 336 333 333 329 327 340 352 359 356 351 164 179 183 183 193 176 224 236 243 228 217 224 225 236 237
34 20 7 357 355 348 349 349 348 349 348 345 343 341 341 335 331 330 334 339 350 354 6 10 10 212 196 187 137 61 222 234 245 234 215 233 234 245
16 8 2 356 352 349 352 351 350 348 345 346 344 342 342 341 335 335 335 335 345 357 5 4 356 32 107 133 104 82 56 210 226 229 209 210 207 218
8 3 357 356 356 354 358 355 351 351 350 351 347 346 345 344 335 335 338 339 346 351 359 9 22 38 53 64 85 100 87 66 76 121 177 199 193 168
5 4 360 1 1 0 358 356 353 350 350 346 346 347 350 343 342 338 340 347 348 354 355 14 23 38 42 47 58 67 63 61 67 72 67 68 85 96